Погода в Брянске

Погода в Брянске : погода сейчас, прогноз погоды и архив. Всё, что Вы хотите узнать о погоде в Брянске!

Поиск расширенной информации на нашем сайте:

Другие новости

Новости СМИ2

Главная страница сайта

Новости сайта

03.07.2017

Напоминаем, что на нашем специализированном сайте Метеоцентр.Азия вы можете получить высокодетализированные автоматические прогнозы погоды по пунктам России, СНГ и мира в авиационном формате (включающие направление и скорость ветра, видимость, явления погоды, количество и форму облачности, нижнюю и верхнюю границу облачности).

Рекомендуем: Детальное описание иайдо харьков на нашем сайте.

Погода в Брянске - сегодня

Время (UTC), дата Ветер
(°,м/с) 
Видим.   Явления Облачность Т
(°С)
Тd
(°С)
f(%) Тe
(°С)
Pmin
(гПа)
dP
(гПа)
Po
(мм)
O2
(г/м3)
Тmin Tmax R s Состояние
почвы
09 13.07.18 180 (Ю) 20000 м  в посл. час ливневой дождь  9/4 600 м средняя 
[Cu med, cong|Ac trans]
+24.2 +14.7 55 +33  1011.6  -0.5  740  271           
18 13.07.18 140 (ЮВ) 8000 м  дымка{ливн. осадки}  9/9 660 м кучево-дожд. 
[Cb cap]
+18.4 +16.8 90 +32  1010.4  0.3  739  275    +25.7     
09 14.07.18 150 (ЮВ) 20000 м    3/3 600 м верхняя 
[Cu med, cong|Ci fib]
+25.3 +15.6 55 +36  1007.1  -0.5  737  268           
21 14.07.18 350 (С) 4000 м  дымка  8/0 средняя 
[Ac trans]
+17.6 +15.4 87 +29  1006.9  0.2  736  275           
18 15.07.18 060 (СВ) 8000 м  дымка{ливн. осадки}  10/10 660 м кучево-дожд. 
[Cb cap]
+18.1 +16.6 91 +31  1007.3  -0.2  737  275    +19.8     
03 16.07.18 320 (СЗ) 7000 м  дымка{ливн. осадки}  10/8 660 м кучево-дожд., средняя 
[Cb cap|Ac und]
+16.7 +16 96 +29  1007  -0.7  736  276  +16.7       
18 16.07.18 010 (С) 8000 м  в посл. час ливневой дождь{гроза}  9/8 630 м кучево-дожд., верхняя 
[Cb cap|Ci fib]
+18.7 +17.7 94 +34  1005.5  735  273    +24.6     
03 17.07.18 060 (СВ) 7000 м  дымка  10/10 840 м 
[Sc]
+18.6 +17.4 93 +34  1003.7  0.2  734  273  +18.5       
09 17.07.18 060 (СВ) 20000 м    4/4 600 м 
[Sc]
+26.5 +19.4 65 +45  1001.4  -1  733  265           
21 17.07.18 050 (СВ) 4000 м  дымка  3/0 средняя 
[Ac trans]
+19.5 +18.4 93 +37  1004  1.2  734  272           
09 18.07.18 020 (С) 20000 м    6/6 870 м 
[Sc]
+23.8 +17.6 68 +38  1001.3  -0.3  733  268           
15 18.07.18 010 (С) 20000 м    8/3 600 м средняя, верхняя 
[Cu med, cong|Ac trans|Ci fib]
+23.6 +17.5 69 +38  1000.2  -0.3  732  267      0.5     
21 18.07.18 360 (С) 4000 м  дымка{ливн. осадки}  8/0 средняя 
[Ac trans]
+19.2 +18.1 93 +36  1001  -0.2  732  271           
03 19.07.18 320 (СЗ) 7000 м  дымка  10/10 720 м 
[Sc]
+18.6 +17.8 95 +35  1000.7  -0.1  732  272  +18.3    0.9     
18 19.07.18 010 (С) 8000 м  дымка{ливн. осадки}  8/6 750 м средняя 
[Sc|Ac trans]
+20.8 +19 89 +38  1001.5  0.6  733  270    +24.8  0.8     
21 19.07.18 010 (С) 4000 м  дымка  9/0 средняя 
[Ac trans]
+19.4 +18 92 +36  1001.7  0.1  733  271           
03 20.07.18 020 (С) 9000 м  дымка  10/6 720 м средняя 
[Sc|Ac und]
+18.6 +18 96 +35  1002  0.3  733  272  +18.2         
09 20.07.18 310 (СЗ) 15000 м    9/8 800 м верхняя 
[Cu med, cong|Ci fib]
+23.1 +17.8 72 +38  1002.2  0.4  733  268           
12 20.07.18 030 (СВ) 20000 м    8/4 600 м верхняя 
[Cu med, cong|Ci fib]
+26.3 +17.4 58 +40  1001.9  733  266           
03 21.07.18 тихо ()   5000 м  в посл. час ливневой дождь  10/8 500 м кучево-дожд., средняя 
[Cb cap|Ac und]
+18.6 +17.8 95 +33  1004.6  0.6  735  273  +18.3       
18 21.07.18 090 (В) 7000 м  слаб. ливневой дождь{гроза}  10/9 570 м кучево-дожд. 
[Cb cap]
+18.9 +18.3 96 +36  1005.7  0.3  736  273    +24.8  26     
03 22.07.18 060 (СВ) 8000 м  дымка  10/10 330 м 
[St]
+19.1 +18.4 96 +36  1005.7  0.1  736  273  +18.5       
21 22.07.18 060 (СВ) 4000 м  дымка  10/4 600 м кучево-дожд., средняя 
[Cb cap|Ac und]
+19.3 +18.2 93 +35  1006.1  736  273           
03 23.07.18 090 (В) 9000 м  дымка  10/10 480 м 
[Sc]
+19.3 +18 92 +35  1006.2  0.4  736  273  +18.9    0.3     
09 23.07.18 050 (СВ) 15000 м    9/8 660 м средняя 
[Sc|Ac trans]
+21.9 +18.1 79 +37  1006.5  736  270           
Время (UTC), дата Ветер
(°,м/с) 
Видим.   Явления Облачность Т
(°С)
Тd
(°С)
f(%) Тe
(°С)
Pmin
(гПа)
dP
(гПа)
Po
(мм)
O2
(г/м3)
Тmin Tmax R s Состояние
почвы

Для получения пояснительной информации подведите курсор к названию столбца.

ПОГОДА в Брянске - архив

Всё, что Вы хотите узнать о погоде в Брянске - удобно и подробно!

Выберите нужную дату (начиная с 1 января 2015* года) и нажмите кнопку "Найти".
Будут отображены архивные сводки погоды по пункту Брянск, начиная с указанной даты.


Отображать данные в формате CSV (для использования в таблицах Excel)


Внимание! Наш архив погоды предназначен исключительно для личного некоммерческого использования в познавательных целях. Если Вам необходимы официальные справки о состоянии погоды (для производственных, юридических, коммерческих и т.п. целей), обращайтесь в органы Росгидромета.

*Примечание: данная дата относится к архиву по метеостанциям СССР (Россия, СНГ, Балтия).
Архив по метеостанциям Зарубежной Европы и Азии (кроме Китая) хранится 10 дней, по другим регионам земного шара (Китай, Африка, Америка, Австралия, Океания) - 1 день.

Брянск - район местоположения метеостанции


Название, широта, долгота, высота метеостанции:
Брянск (город) 53.2°ш. 34.3°д. 216 м над ур. моря [Российская Федерация]

Дополнительная информация

В oтличие oт бoльшинства пoгoдных сайтoв мы публикуем пoдрoбную метеoинфoрмацию в детальнoм прoфессиoнальнoм фoрмате.

Характеристики температуры и влажнoсти вoздуха измеряются на высoте 2 м в тени вдали oт зданий и деревьев.
Скoрoсть ветра измеряется на высoте 10 м (на урoвне рoста челoвека скoрoсть ветра ниже в 1.5-2 раза). Если метеoстанция нахoдится в гoрoде или в лесу, тo скoрoсть ветра занижена на 2-4 м/с пo сравнению с oткрытым местoм. Скoрoсть ветра над акватoриями крупных рек и oзёр, а также на вершинах хoлмoв на 2-5 м/с выше, чем в oбычных услoвиях.
Атмoсфернoе давление в разных тoчках местнoсти мoжет значительнo oтличаться oт давления на метеoстанции, в зависимoсти oт услoвий рельефа (при пoдъёме на 10 м давление пoнижается примернo на 1 мм рт.ст.).